Regional Weather Roundup
Issued by NWS

Home | Current Version | Previous Version | Graphics & Text | Print | Product List | Glossary On
Versions: 1 2 3 4 5 6 7 8 9 10 11 12 13 14 15 16 17 18 19 20 21 22 23 24 25 26 27 28 29 30 31 32 33 34 35 36 37 38 39 40 41 42 43 44 45 46 47 48 49 50
000
ASUS45 KTFX 020710
RWRMT
MONTANA REGIONAL WEATHER ROUNDUP
NATIONAL WEATHER SERVICE GREAT FALLS MT
100 AM MDT TUE JUN 02 2015

NOTE: "FAIR" INDICATES FEW OR NO CLOUDS BELOW 12000 FEET WITH NO
SIGNIFICANT WEATHER AND/OR OBSTRUCTIONS TO VISIBILITY.

MTZ001>007-043-020800-
WEST OF THE DIVIDE

CITY           SKY/WX    TMP DP  RH WIND       PRES   REMARKS
KALISPELL      LGT RAIN  57  56  96 CALM      29.86F
MISSOULA       LGT RAIN  55  48  77 N3        29.92F
BUTTE          PTCLDY    45  42  89 S5        29.96R
MULLAN PASS    LGT RAIN  44  44 100 N3        29.95F VSB 3/4
DEER LODGE       N/A     50  46  87 NE5       29.94S
EUREKA           N/A     57  55  94 E3        29.87F
HAMILTON         N/A     52  48  87 E14       29.93F
LIBBY            N/A     55  55 100 CALM      29.89S
PLAINS           N/A     58  49  72 CALM      29.89F
RONAN            N/A     56  52  86 S9        29.95S
$$

MTZ008-052>055-020800-
SOUTHWEST MONTANA

CITY           SKY/WX    TMP DP  RH WIND       PRES   REMARKS
BOZEMAN        PTCLDY    51  47  86 S6        29.93S
DILLON         PTCLDY    49  43  80 S7        29.94R
W YELLOWSTONE  FOG       41  41 100 S3        30.05S VSB<1/4
THREE FORKS      N/A     50  16  26 CALM      29.92R
TWIN BRIDGES     N/A     47  41  80 SE2       29.94R
$$

MTZ009-010-012-014-046-048-049-054-020800-
EAST SLOPES AND CENTRAL MONTANA

CITY           SKY/WX    TMP DP  RH WIND       PRES   REMARKS
CUT BANK       RAIN      55  54  96 S7        29.90R FOG
GREAT FALLS    MOCLDY    52  51  97 W5        29.87R
MALMSTROM AFB  MOCLDY    54  52  93 E7        29.87S
HELENA         PTCLDY    53  50  89 CALM      29.89R
CONRAD           N/A     58  58 100 CALM      29.92S
$$

MTZ011-013-016-021-045-047-050-051-020800-
NORTH CENTRAL MONTANA

CITY           SKY/WX    TMP DP  RH WIND       PRES   REMARKS
HAVRE          CLOUDY    65  41  41 E13       29.85S
LEWISTOWN      CLOUDY    55  52  89 E5        29.92R
N BAR RANCH    CLOUDY    54  50  87 N3        29.94S
CHINOOK          N/A     66  37  34 E8        29.88R
FORT BENTON      N/A     61  55  82 N3        29.88S
$$

MTZ017>020-022>027-061-062-020800-
NORTHEAST MONTANA

CITY           SKY/WX    TMP DP  RH WIND       PRES   REMARKS
GLASGOW        MOCLDY    66  39  37 NE20G31   29.81R
JORDAN           N/A     59  55  87 NW15      29.88R
SIDNEY         CLOUDY    68  54  60 N13       29.77F
WOLF POINT     CLOUDY    68  46  45 NE15      29.82S
MALTA            N/A     65  41  41 CALM      29.84R
PLENTYWOOD       N/A     63  45  51 NE17G24   29.85F
POPLAR           N/A     66  50  55 NE15      29.82S
SCOBEY           N/A     62  41  46 N16       29.88R
$$

MTZ028>42-056>058-020800-
SOUTHCENTRAL AND SOUTHEAST MONTANA

CITY           SKY/WX    TMP DP  RH WIND       PRES   REMARKS
BAKER          CLOUDY    63  55  75 S8        29.78F
BILLINGS       CLOUDY    57  54  89 W6        29.90R
LIVINGSTON     PTCLDY    57  44  62 W12       29.91F
MILES CITY     TSTM      62  61  96 W17       29.76S
BIG TIMBER       N/A     54  52  94 N5        29.94R
EKALAKA          N/A     59  54  83 S1        29.87R
FORSYTH          N/A     61  61 100 W14       29.84S
LAUREL           N/A     55  48  77 CALM      29.90F
ROUNDUP          N/A     57  52  84 CALM      29.82R
$$

REGIONAL REPORTS...DAKOTAS

CITY           SKY/WX    TMP DP  RH WIND       PRES   REMARKS
WILLISTON      CLOUDY    64  55  72 NE12      29.82F
MINOT          CLOUDY    60  58  92 N7        29.80R
DICKINSON      TSTM      62  57  83 E23G31    29.78R
BEACH          TSTM      59  59 100 W9G21     29.84R
CROSBY         CLOUDY    59  59 100 N9        29.88R
WATFORD CITY   FAIR      63  59  88 NE8       29.76F
BISMARCK       CLOUDY    68  59  73 N20G30    29.80R
GRAND FORKS    HVY RAIN  59  52  77 NW20G31   29.90R
FARGO          CLOUDY    65  45  48 S22G31    29.88F
BUFFALO SD       N/A     67  56  67 N14       29.75R
RAPID CITY     CLOUDY    65  58  78 SW8       29.81F
$$

REGIONAL REPORTS...WYOMING/IDAHO/WASHINGTON

CITY           SKY/WX    TMP DP  RH WIND       PRES   REMARKS
GILLETTE       MOCLDY    62  50  64 NW18G24   29.92R
SHERIDAN       CLOUDY    57  51  80 NW9       29.91F
BUFFALO WY     CLOUDY    58  51  78 N13G24    29.93F
CODY           CLOUDY    55  41  58 NW7       29.93F
YELLOWSTONE LA   N/A     36  34  92 CALM      30.12R
IDAHO FALLS    CLEAR     46  44  93 N6        29.95S
SALMON           N/A     54  46  76 NE5       29.92R
BOISE          PTCLDY    60  46  59 N3        29.86R
SPOKANE        LGT RAIN  57  55  93 SE10      29.86F
$$

REGIONAL REPORTS...ALBERTA

CITY           SKY/WX    TMP DP  RH WIND       PRES   REMARKS
EDMONTON       CLEAR     43  36  75 NE3       30.04R
CALGARY        MOCLDY    55  46  71 N9        29.97S
LETHBRIDGE     LGT RAIN  61  48  63 S25G32    29.90R
MEDICINE HAT   PTCLDY    61  39  44 E12       29.88S
$$

REGIONAL REPORTS...SASKATCHEWAN

CITY           SKY/WX    TMP DP  RH WIND       PRES   REMARKS
SWIFT CURRENT  CLEAR     54  43  66 E9        29.93F
REGINA         MOCLDY    57  46  67 NE13      29.90F
SASKATOON      PTCLDY    50  45  81 NE8       29.98R
$$


USA.gov is the U.S. government's official web portal to all federal, state and local government web resources and services.